Погода в Аэропорту Гурни

Папуа-Новая Гвинея     10°18′36″S   150°19′48″E
темп.,
°C
ветер,
м/с
пор.,
м/с
влажн.,
%
обл.,
%
осадки,
мм/ч
давл.,
гПа
погр.,
м
18 августа, чт
чт1801:00+17юз34855 0.0 101485
04:00+17юз24865 0.0 101385
07:00+18юз24820 0.0 1015108
10:00+24ююз235742 0.0 10151232
13:00+25ююз235556 0.0 10131338
16:00+25ююз235557 0.0 10111332
19:00+19ююз238413 0.0 1014102
22:00+18юз23875 0.0 101665
19 августа, пт
пт1901:00+18юз22877 0.0 101458
04:00+17юз238730 0.0 101462
07:00+18юз238414 0.0 101593
10:00+25ююв236072 0.0 10151241
13:00+25ю235957 0.0 10131260
16:00+24ю236872 0.0 1011872
19:00+20ююз239330 0.0 101495
22:00+19ююз229635 0.1 101472
20 августа, сб
сб2001:00+19ююз239557 0.1 101384
04:00+20ююз239274 0.1 1013113
07:00+20ююз239062 0.0 1015123
10:00+26ю235942 0.1 10151160
13:00+26ю236168 0.0 10121118
16:00+25ю236359 0.0 1011999
19:00+20ююз23895 0.0 101381
22:00+19ююз239476 0.0 101575
21 августа, вс
вс2101:00+19юз239453 0.0 101387
04:00+20юз239643 0.1 1012100
07:00+21ююз239231 0.1 1014168
10:00+26ю237178 0.3 1013946
13:00+24ю238856 1.9 1012498
16:00+23ю249049 3.8 1011428
19:00+21ююз229672 0.6 101384
22:00+21ююз229791 1.1 101492
22 августа, пн
пн2201:00+21юз2398100 0.9 1012112
04:00+21ююз229787 1.3 101176
07:00+22ююз239755 0.5 1013111
10:00+24ю239286 1.6 1013466
13:00+23юв2396100 4.4 1011235
16:00+24вюв2495100 11.1 1010363
19:00+22ссв1197100 4.3 101243
22:00+22ссз1196100 4.6 101246